TIME,DELAY(SENSOR),PRES,T(CTD),SAL,OXYGEN,RAWTEMP,T(OPTODE),TCPHASE,FLUOR,BETA(BETA700),BETA(BETA412),BETA(BETA440),CDOM,C(CSC),ED(ED411.90),ED(ED443.80),ED(ED489.40),ED(ED554.70),LU(LU412.20),LU(LU443.80),LU(LU489.40),LU(LU555.00),COMP,TILTX,TILTX(TILTY),CHECK
1340637938,5804,498.0400085449219000,15.0854997634887700,36.0157012939453100,210.0084991455078000,251.9210968017578000,15.0838899612426760,33.3819885253906250,51,105,100,80,71,14834,2146954020,2147511936,2147276708,2147482541,2147084480,2146943533,2147670308,2147119926,2777,-2,7,11908
1340638086,5803,486.3699951171875000,15.3337001800537110,36.0573997497558600,210.7053070068359400,243.9096984863281200,15.3252801895141600,33.2273902893066400,51,102,99,81,71,14834,2146952777,2147511625,2147275328,2147479104,2147088612,2146950144,2147670006,2147120228,2829,-2,8,17935
1340638245,5805,473.0199890136719000,15.5712003707885740,36.1012992858886700,212.2268981933593800,235.9367065429687500,15.5655002593994140,33.0278091430664060,51,103,99,80,70,14831,2146955053,2147509942,2147270884,2147479058,2147087990,2146952987,2147669083,2147120466,2875,-2,8,41060
1340638360,5803,461.2200012207031000,15.7966995239257810,36.1418991088867200,213.5314025878906200,228.2563934326172000,15.7968997955322270,32.8461189270019500,51,103,99,80,70,14829,2146953225,2147512374,2147272786,2147480329,2147086043,2146948772,2147666249,2147124077,3527,-2,7,41300
1340638463,5802,449.7600097656250000,15.9497003555297850,36.1722984313964840,215.0617980957031200,221.9483032226562500,15.9869499206542970,32.6728401184082000,52,102,100,81,70,14831,2146953737,2147515501,2147271698,2147476361,2147087195,2146949933,2147660425,2147120000,3379,-2,8,36281
1340638582,5805,437.2699890136719000,16.3428001403808600,36.2459983825683600,220.1656036376953000,210.4532012939453000,16.3333091735839840,32.2377090454101560,51,103,99,79,68,14831,2146953161,2147510162,2147271332,2147478838,2147086976,2146951506,2147661248,2147119872,3519,-2,8,58405
1340638697,5805,426.3099975585937500,16.5025997161865230,36.2795982360839840,223.6439056396484400,204.7998962402343800,16.5036792755126950,31.9765300750732420,50,105,99,80,69,14829,2146952100,2147512137,2147271561,2147476516,2147086738,2146948882,2147662528,2147120822,168,-2,8,33481
1340638812,5807,415.0599975585937500,16.6772003173828120,36.3148002624511700,226.7637939453125000,199.1535949707031200,16.6738491058349600,31.7383804321289060,51,103,100,80,69,14829,2146955739,2147514806,2147271158,2147473197,2147085348,2146951460,2147659602,2147116553,19,-2,8,63523
1340638929,5808,403.5700073242187500,16.7961006164550780,36.3363990783691400,227.5767059326172000,194.9479064941406200,16.8006191253662100,31.6391792297363280,51,103,100,81,69,14827,2146955858,2147513892,2147270656,2147475282,2147086372,2146955291,2147659611,2147113737,87,-2,8,18804
1340639044,5806,392.5799865722656000,16.9288005828857420,36.3605995178222660,227.1853027343750000,190.9548950195312500,16.9209995269775400,31.6041793823242200,50,104,99,82,69,14826,2146953883,2147512832,2147272237,2147470336,2147087241,2146953408,2147657965,2147118601,2950,-2,8,48086
1340639173,5805,380.9800109863281000,17.0639991760253900,36.3857994079589840,228.3076019287109400,186.4001007080078000,17.0583305358886720,31.4850292205810550,51,104,99,81,69,14826,2146954944,2147512045,2147268708,2147470966,2147087606,2146958363,2147658614,2147112091,2857,-2,8,9999
1340639300,5805,370.2900085449219000,17.1457996368408200,36.4035987854003900,230.9402008056640600,183.5581054687500000,17.1440296173095700,31.3146705627441400,52,105,99,81,67,14826,2146950902,2147510921,2147272292,2147471140,2147084800,2146950354,2147660982,2147121307,3306,-2,8,56708
1340639439,5803,359.5000000000000000,17.2595996856689450,36.4235992431640600,231.9940032958984400,179.7377014160156200,17.2592391967773440,31.2103595733642580,51,105,101,82,67,14825,2146955035,2147514194,2147270125,2147470436,2147086902,2146950080,2147656493,2147114011,3477,-2,8,9450
1340639592,5804,348.3500061035156000,17.3764991760253900,36.4472007751464840,233.8690948486328000,175.8618927001953000,17.3761501312255860,31.0659999847412100,50,105,100,81,68,14821,2146950930,2147512484,2147270948,2147470546,2147088402,2146949641,2147658962,2147121700,3404,-2,8,3484
1340639731,5803,337.9100036621094000,17.4449996948242200,36.4614982604980500,235.0164947509765600,173.8233032226562500,17.4376506805419920,30.9829292297363280,50,105,99,81,67,14824,2146956324,2147513746,2147270930,2147465490,2147085202,2146956827,2147654793,2147112475,3088,-2,8,20662
1340639861,5809,326.3800048828125000,17.5501995086669920,36.4798011779785160,235.7079010009765600,170.3220062255859400,17.5432891845703120,30.9020500183105470,50,105,100,81,68,14822,2146957549,2147516946,2147272320,2147467748,2147085238,2146955849,2147660086,2147123264,2729,-2,8,34547
1340639976,5803,314.6400146484375000,17.6685009002685550,36.4986991882324200,235.4754943847656200,166.4364013671875000,17.6605491638183600,30.8610801696777340,50,105,100,81,69,14824,2146952603,2147516242,2147276379,2147465371,2147087259,2146958811,2147657810,2147117366,2773,-2,8,31617
1340640079,5806,304.0899963378906000,17.7775993347167970,36.5182991027832000,236.2344970703125000,162.7151947021484400,17.7728691101074220,30.7743606567382800,50,109,98,82,68,14821,2146955501,2147515465,2147281408,2147463250,2147087030,2146956242,2147662171,2147124928,3271,-2,8,63947
1340640184,5806,293.3399963378906000,17.8106002807617200,36.5233993530273440,236.4015045166015600,161.6813964843750000,17.8040790557861330,30.7527503967285160,50,106,99,81,67,14822,2146953078,2147521051,2147286473,2147464886,2147086162,2146956544,2147662354,2147122468,2937,-2,8,7241
1340640299,5803,281.4500122070312500,17.8799991607666000,36.5269012451171900,234.2039031982422000,159.2555999755859400,17.8773097991943360,30.8261604309082030,50,105,100,80,68,14820,2146951405,2147519652,2147293129,2147463524,2147084416,2146960429,2147666880,2147124470,2842,-2,8,47056
1340640402,5806,270.7799987792969000,17.9456996917724600,36.5290985107421900,232.0354003906250000,157.2592926025390600,17.9375896453857420,30.9049797058105470,51,109,100,82,67,14817,2146954761,2147523977,2147299968,2147462025,2147087707,2146964379,2147671378,2147124077,2576,-2,8,37127
1340640520,5803,260.2200012207031000,17.9808006286621100,36.5292015075683600,232.3753967285156200,155.9324035644531200,17.9776592254638670,30.8702507019042970,51,107,101,82,69,14814,2146952301,2147527780,2147311195,2147464704,2147084736,2146966107,2147681316,2147125211,2534,-2,8,58533
1340640659,5802,250.2100067138672000,18.1678009033203120,36.5545997619628900,231.2942962646484400,149.7048950195312500,18.1657505035400400,30.8398399353027340,51,108,100,81,68,14812,2146954880,2147531264,2147325440,2147463597,2147086619,2146973083,2147684525,2147127378,2368,-2,8,52558
1340640825,5805,237.3099975585937500,18.3426990509033200,36.5550994873046900,229.7274932861328000,144.0223999023437500,18.3374595642089840,30.8410091400146500,51,109,102,81,68,14811,2146958464,2147532772,2147331410,2147463552,2147076516,2146973046,2147687040,2147124452,1892,-2,8,36389
1340640940,5806,226.5099945068359400,18.5487003326416000,36.5802001953125000,227.1141967773437500,137.5368041992187500,18.5335197448730470,30.8841094970703120,51,108,100,82,67,14815,2146956544,2147543433,2147354477,2147462573,2147090166,2146979675,2147699410,2147127908,1560,-2,8,32338
1340641069,5804,215.1399993896484400,18.9671993255615230,36.5960006713867200,233.6954040527343800,123.5196990966796900,18.9575901031494140,30.3752708435058600,51,109,102,82,67,14815,2146958052,2147557750,2147381156,2147462829,2147085504,2146985170,2147711643,2147127716,1611,-2,8,13192
1340641196,5806,204.8699951171875000,19.1830997467041000,36.5938987731933600,245.4546966552734400,115.7181015014648400,19.1938495635986330,29.7241401672363280,51,104,99,81,66,14816,2146957540,2147569206,2147410496,2147462473,2147081005,2146997266,2147730185,2147128502,2163,-2,8,48580
1340641287,5805,197.4400024414062500,19.2203006744384770,36.5704002380371100,254.4031982421875000,115.0038986206054700,19.2154808044433600,29.3184700012207030,50,103,99,81,65,14821,2146959442,2147587044,2147440210,2147458697,2147085549,2147008146,2147745929,2147130642,2495,-2,8,13745
1340641342,5807,193.0500030517578000,19.2180004119873050,36.5635986328125000,257.5062866210937500,115.1071014404296900,19.2123603820800780,29.1861991882324220,51,103,99,82,64,14823,2146960905,2147597220,2147456338,2147456557,2147081974,2147015680,2147759213,2147130633,2656,-2,8,24640
1340641417,5806,187.3999938964843800,19.2115001678466800,36.5602989196777340,259.3369140625000000,115.2460021972656200,19.2081508636474600,29.1100597381591800,50,105,99,81,64,14820,2146963072,2147605842,2147481142,2147455936,2147085540,2147028297,2147770678,2147131318,2631,-2,8,37831
1340641472,5806,183.5200042724609400,19.2120990753173830,36.5601005554199200,260.0007934570312500,115.2509994506836000,19.2080001831054700,29.0821208953857420,50,106,100,82,64,14825,2146963181,2147612379,2147497965,2147456228,2147088603,2147030336,2147781001,2147130313,2723,-2,8,58830
1340641527,5804,179.6199951171875000,19.2126007080078120,36.5602989196777340,260.1632080078125000,115.2359008789062500,19.2084503173828120,29.0748405456542970,50,105,99,80,64,14818,2146967204,2147622070,2147524123,2147456530,2147087698,2147042450,2147794505,2147131328,2855,-2,8,23397
1340641582,5804,175.6900024414062500,19.2133007049560550,36.5595016479492200,260.1303100585937500,115.1936035156250000,19.2097396850585940,29.0756301879882800,50,104,100,82,64,14819,2146966107,2147638500,2147551808,2147457901,2147085787,2147055387,2147814290,2147132516,3021,-2,8,440
1340641637,5803,171.7500000000000000,19.2178993225097660,36.5597991943359400,260.0997009277344000,115.0747985839843800,19.2133407592773440,29.0755500793457030,51,106,100,83,64,14820,2146971291,2147659355,2147592996,2147455643,2147094107,2147069860,2147836132,2147135579,3004,-2,8,48305
1340641692,5803,167.6999969482422000,19.2192993164062500,36.5609016418457000,259.9945068359375000,115.0111999511718800,19.2152595520019530,29.0790596008300780,52,113,100,84,64,14815,2146978313,2147681545,2147635840,2147457069,2147098477,2147085019,2147858075,2147134226,3145,-2,8,16911
1340641770,5804,162.3099975585937500,19.2180004119873050,36.5587997436523440,259.6788024902344000,115.0569000244140600,19.2138805389404300,29.0932197570800780,55,109,101,82,64,14806,2146985956,2147712749,2147695259,2147457380,2147096941,2147104493,2147896429,2147138953,2993,-2,8,2274
1340641837,5805,158.2100067138672000,19.2178001403808600,36.5591011047363300,259.6647949218750000,115.0404968261718800,19.2143707275390620,29.0935497283935550,57,113,102,83,65,14802,2146991872,2147734628,2147739922,2147457133,2147102957,2147126701,2147920731,2147138267,2885,-2,8,4794
1340641904,5806,154.0599975585937500,19.2192993164062500,36.5592994689941400,259.4596862792969000,114.9940032958984400,19.2157802581787100,29.1016292572021500,61,113,101,84,64,14799,2146998848,2147758765,2147791917,2147456512,2147104850,2147146651,2147951972,2147143506,2627,-2,8,17918
1340641971,5803,149.8600006103515600,19.2208003997802730,36.5589981079101560,259.1253967285156000,114.9534988403320300,19.2170104980468750,29.1153297424316400,64,117,102,83,66,14792,2147002651,2147790400,2147853357,2147457307,2147112704,2147165613,2147987995,2147144155,2548,-2,9,19949
1340642026,5803,146.3999938964843800,19.2275009155273440,36.5597991943359400,259.0545043945312500,114.7520980834961000,19.2231101989746100,29.1156501770019530,70,116,103,84,64,14785,2147013092,2147827675,2147908562,2147458733,2147115867,2147189138,2148016310,2147146395,2624,-2,8,39109
1340642104,5804,141.9600067138672000,19.2441005706787100,36.5634994506835940,258.5195007324219000,114.2041015625000000,19.2397193908691400,29.1313095092773440,78,121,103,83,65,14771,2147022555,2147868196,2147988077,2147461147,2147120704,2147214582,2148060498,2147146715,2748,-2,9,3458
1340642183,5808,138.4799957275390600,19.2535991668701170,36.5648994445800800,258.3958129882812500,113.9169006347656200,19.2484207153320300,29.1329708099365230,90,122,102,85,65,14764,2147036681,2147911433,2148071149,2147458413,2147135826,2147245156,2148096740,2147149796,2868,-2,8,35106
1340642274,5803,134.7100067138672000,19.2611007690429700,36.5679016113281250,258.4182128906250000,113.6529006958007800,19.2564105987548830,29.1285800933837900,95,120,104,86,64,14754,2147056868,2147980278,2148201280,2147462546,2147141897,2147286994,2148165211,2147154349,3108,-2,8,14505
1340642377,5806,130.6499938964843800,19.2844009399414060,36.5727996826171900,258.4873962402344000,112.8895034790039000,19.2795505523681640,29.1159496307373050,101,123,103,84,65,14752,2147088274,2148091648,2148410907,2147463177,2147155044,2147348452,2148271469,2147160493,3366,-2,9,24338
1340642482,5807,126.8700027465820300,19.3383007049560550,36.5859985351562500,258.7709045410156000,111.3600006103515600,19.3258991241455080,29.0842094421386720,93,119,103,84,65,14764,2147120301,2148211776,2148638546,2147467995,2147167616,2147421220,2148378797,2147166464,2716,-2,9,31826
1340642609,5801,122.9700012207031200,19.3623008728027340,36.5942001342773440,259.5148010253906000,110.4935989379882800,19.3521595001220700,29.0415401458740230,73,114,101,83,64,14787,2147158985,2148352987,2148922733,2147470573,2147199616,2147510089,2148528411,2147183981,3012,-2,8,33016
1340642755,5807,119.1500015258789000,19.3705005645751950,36.5947990417480500,260.4934997558594000,110.0875015258789000,19.3644599914550780,28.9949607849121100,67,112,101,84,65,14795,2147228443,2148570587,2149363382,2147478290,2147245933,2147671936,2148777801,2147195876,3202,-2,8,45481
1340642870,5804,115.1600036621093800,19.3462009429931640,36.5853004455566400,260.2778930664062500,110.8039016723632800,19.3427505493164060,29.0133590698242200,89,116,102,85,63,14750,2147297472,2148770715,2149731456,2147489124,2147284928,2147802880,2148966336,2147208603,3316,-2,8,10856
1340642973,5806,111.9899978637695300,19.3463001251220700,36.5812988281250000,260.0364990234375000,110.8115005493164000,19.3425197601318360,29.0234699249267580,102,122,104,84,64,14754,2147382198,2148992219,2150107392,2147495515,2147314441,2147909440,2149122377,2147220123,298,-2,8,22283
1340643087,5806,107.8499984741211000,19.3316993713378900,36.5719985961914060,259.7872009277344000,111.3677978515625000,19.3256607055664060,29.0412406921386720,131,130,102,84,65,14719,2147566875,2149501238,2150924571,2147514889,2147386349,2148093467,2149400128,2147244964,36,-2,8,39994
1340643178,5808,103.7900009155273400,19.3810005187988280,36.5816993713378900,261.6801147460937500,109.7937011718750000,19.3733692169189450,28.9414596557617200,144,129,103,84,66,14696,2147840722,2150198784,2151953499,2147540580,2147474386,2148302829,2149695149,2147276260,452,-2,8,33610
1340643269,5801,99.3899993896484400,19.3864994049072270,36.5769996643066400,264.5357055664062500,109.3613967895507800,19.3864707946777340,28.8171596527099600,146,133,105,86,67,14684,2148262866,2151250230,2153395501,2147572662,2147626697,2148626889,2150136914,2147321078,3430,-2,8,45938
1340643324,5804,96.4800033569336000,19.4193000793457030,36.5749015808105500,266.2479858398437500,108.4356002807617200,19.4145393371582030,28.7349205017089840,141,132,105,85,66,14678,2148661787,2152188818,2154618102,2147605312,2147762112,2148931776,2150535817,2147357110,2986,-2,8,49142
1340643381,5807,93.1900024414062500,19.4764003753662100,36.5820007324218750,268.1369934082031000,106.4993972778320300,19.4732398986816400,28.6331501007080080,140,133,106,86,66,14667,2149259053,2153541613,2156328082,2147656832,2147970825,2149397156,2151120969,2147421970,2689,-2,8,31627
1340643436,5804,89.7500000000000000,19.5121002197265620,36.5864982604980500,269.0999145507812500,105.3607025146484400,19.5077705383300780,28.5795803070068360,125,129,104,86,67,14680,2150094016,2155377691,2158606582,2147737170,2148280877,2150103286,2151981952,2147511186,3151,-2,8,58880
1340643491,5807,86.0100021362304700,19.5491008758544920,36.5894012451171900,270.8352050781250000,104.1688995361328100,19.5439090728759770,28.4945793151855470,109,125,104,87,66,14688,2151238802,2157738020,2161460982,2147851675,2148754916,2151114934,2153169298,2147630006,293,-2,8,59708
1340643546,5802,82.1399993896484400,19.6035995483398440,36.5932006835937500,272.6835021972656000,102.0643997192382800,19.6077404022216800,28.3941497802734380,104,130,105,86,65,14679,2152891017,2161053632,2165451538,2148048868,2149463131,2152614052,2154876315,2147801645,376,-2,8,63472
1340643601,5807,78.1800003051757800,19.6555995941162100,36.5929985046386700,274.9804077148437500,100.6617965698242200,19.6502990722656250,28.2856101989746100,100,137,106,88,64,14644,2154450185,2163839570,2168435446,2148227840,2150188864,2154024722,2156311405,2147951945,807,-2,8,16654
1340643656,5807,74.2300033569336000,19.7022991180419920,36.5932998657226560,276.4973144531250000,98.9058837890625000,19.7035808563232420,28.2038803100585940,98,139,106,87,63,14655,2156296722,2166896000,2171564434,2148461458,2151059730,2155605193,2157869787,2148119040,656,-2,8,49575
1340643730,5805,69.5800018310546900,19.7938003540039060,36.5923004150390600,278.5440979003906000,96.2454833984375000,19.7843208312988280,28.0908107757568360,98,137,107,90,62,14641,2159327040,2171850496,2176721024,2148878345,2152494656,2158165513,2160405302,2148402112,3440,-2,8,14940
1340643785,5804,66.9599990844726600,19.8421993255615230,36.5923004150390600,278.9378051757812500,94.7528610229492200,19.8296298980712900,28.0567893981933600,95,137,107,88,63,14633,2161435520,2175065874,2179912640,2149177746,2153493065,2159854573,2161932443,2148585453,3189,-2,8,5458
1340643840,5805,64.6299972534179700,19.9293003082275400,36.5920982360839840,279.3667907714844000,91.5752487182617200,19.9261207580566400,28.0004997253417970,92,136,108,87,65,14638,2163407744,2177896969,2182579008,2149464832,2154469056,2161431689,2163338669,2148761344,3178,-2,9,26658
1340643895,5805,62.7599983215332000,19.9741992950439450,36.5915985107421900,280.1820068359375000,90.4056930541992200,19.9616394042968750,27.9545993804931640,92,137,110,88,63,14610,2164997787,2180058633,2184475382,2149677878,2155284717,2162703094,2164396406,2148886281,2593,-2,8,6085
1340643950,5804,61.2400016784668000,20.0184001922607420,36.5918006896972660,280.4807128906250000,88.7621078491211000,20.0115699768066400,27.9227294921875000,92,138,107,89,63,14634,2166399067,2181769929,2185845586,2149887698,2156033856,2163759168,2165209417,2148993865,2381,-3,8,7597
1340644031,5806,59.4199981689453100,20.1004009246826170,36.5881996154785160,281.3109130859375000,86.3324279785156200,20.0853900909423830,27.8605709075927730,90,156,108,88,64,14613,2168835620,2185059803,2188802825,2150213504,2157330541,2165728091,2166819794,2149202797,1623,-2,9,43355
1340644146,5807,57.4900016784668000,20.1695003509521500,36.5914001464843750,281.5877990722656000,84.2299499511718800,20.1492900848388670,27.8239192962646500,88,140,108,88,63,14617,2172108772,2189451593,2192810742,2150691931,2159080658,2168375606,2168963684,2149465974,1447,-2,9,59289
1340644285,5806,55.7500000000000000,20.3024005889892580,36.5952987670898440,282.4283142089844000,79.5820388793945300,20.2906093597412100,27.7342891693115230,86,139,106,87,62,14605,2175571474,2194036288,2196961060,2151175826,2161010422,2171215881,2171319716,2149761289,922,-2,9,33999
1340644482,5804,52.3499984741210940,20.5585994720459000,36.5952987670898440,282.2172851562500000,71.3518218994140600,20.5410499572753900,27.6403999328613280,85,137,113,90,63,14570,2186959488,2209315008,2211449728,2153125202,2167476352,2180614601,2179078061,2150773915,2946,-2,8,62313
1340644563,5808,50.8600006103515600,20.8563003540039060,36.5952987670898440,281.1451110839844000,62.3306808471679700,20.8158607482910160,27.5695495605468750,79,140,109,88,62,14581,2185908342,2206377773,2207408969,2152935168,2167547913,2179905197,2177676434,2150648155,2634,-2,8,35493
1340644715,5806,48.6500015258789060,20.9314002990722660,36.5933990478515600,281.0004882812500000,58.7913513183593750,20.9237709045410160,27.5316200256347660,75,138,109,90,62,14574,2187630985,2206816155,2206526665,2153256210,2169602706,2181701110,2178229266,2150767277,2673,-2,8,54966
1340644772,5806,46.4700012207031250,20.9675006866455080,36.5833015441894500,280.8804016113281000,56.9434890747070300,20.9801292419433600,27.5133991241455080,74,137,109,89,61,14573,2192085065,2211547401,2210444982,2154202624,2172898395,2185640365,2180952237,2151194843,2720,-2,8,63453
1340644817,5804,44.7099990844726560,21.0326995849609380,36.5779991149902340,281.1004028320312500,55.2457199096679700,21.0319309234619140,27.4841499328613280,72,139,112,89,60,14569,2195788955,2215411026,2213609993,2154993362,2175640512,2188856877,2183189184,2151564059,2037,-2,8,32761
1340644874,5806,42.5499992370605500,21.1483993530273440,36.5760002136230500,280.6465148925781000,51.5709609985351560,21.1440906524658200,27.4563007354736330,70,142,111,89,61,14574,2200642075,2220414902,2217883894,2156199817,2179335396,2193124233,2186175579,2152077138,1242,-2,9,36108
1340644931,5806,40.5600013732910160,21.2761001586914060,36.5676002502441400,280.1091918945312500,49.3544006347656250,21.2117691040039060,27.4495105743408200,69,141,111,90,61,14567,2205010541,2224907291,2221804891,2157414683,2182930112,2197206656,2189033462,2152583414,877,-2,9,46280
1340644986,5806,38.6800003051757800,21.3857994079589840,36.5642013549804700,279.5174865722656000,45.7848701477050800,21.3208007812500000,27.4281692504882800,67,137,111,88,60,14590,2210807990,2231088557,2227393526,2159097545,2187839780,2202819017,2192970441,2153302043,910,-2,8,63774
1340645031,5807,36.6599998474121100,21.4514999389648440,36.5614013671875000,278.7741088867187500,41.4410514831543000,21.4535694122314450,27.4032993316650400,67,136,108,88,62,14586,2217426276,2238142838,2233929005,2161324617,2193657234,2209370971,2197537581,2154166436,800,-2,8,42557
1340645076,5807,34.6800003051757800,21.5051002502441400,36.5582008361816400,278.4114074707031000,39.7256698608398440,21.5060195922851560,27.3960990905761720,66,136,109,89,59,14590,2224998546,2246194029,2241380909,2163914880,2200307721,2216860160,2202824841,2155129005,110,-3,9,41513
1340645121,5804,32.7999992370605500,21.5709991455078120,36.5559997558593750,278.1900024414062500,37.7105293273925800,21.5676593780517580,27.3798809051513670,65,134,110,88,59,14589,2232317604,2253901878,2248540443,2166829988,2207179373,2224398445,2208046208,2156241810,3085,-2,9,50356
1340645178,5808,30.5100002288818360,21.6483993530273440,36.5521011352539060,277.8658142089844000,35.7118110656738300,21.6288204193115230,27.3679599761962900,64,134,108,89,58,14591,2241861833,2263838390,2257819812,2170843337,2216465453,2234474075,2215171437,2157748333,2711,-2,8,65279
1340645223,5804,28.8700008392334000,21.9071998596191400,36.5312004089355500,276.8840026855469000,30.4669303894042970,21.7893905639648440,27.3414592742919920,63,137,108,90,58,14581,2249156736,2271507181,2265127021,2174095606,2223932772,2242571081,2221079268,2158930294,3051,-2,8,63436
1340645303,5805,26.7900009155273440,22.3299999237060550,36.5192985534668000,272.5209960937500000,12.5859403610229500,22.3378696441650400,27.2917404174804700,62,129,108,89,58,14605,2259222162,2282053101,2275123520,2179054564,2234546816,2253702436,2228245458,2160649874,2858,-3,8,6939
